User: anonymous   Login
Location: Unspecified
(0.0000°N, 0.0000°E)
Time: 19:40:59
(UTC+02:00)
Language:

Cosmos 1703 - Orbit

View from above orbital plane
View from above orbital plane
View from above satellite
View from above satellite

Ground track
Ground track

The orbit data is extracted from the following two-line orbital elements,

1 16262U 85108A   15108.53923987  .00004623  00000-0  29789-3 0  9993
2 16262 082.4854 305.0805 0011894 124.5652 235.6700 15.08053717599620
Epoch (UTC): 18 April 2015 12:56:30
Eccentricity: 0.0011894
inclination: 82.4854°
perigee height: 534 km
apogee height: 550 km
right ascension of ascending node: 305.0805°
argument of perigee: 124.5652°
revolutions per day: 15.08053717
mean anomaly at epoch: 235.6700°
orbit number at epoch: 59962

The dashed part of the orbit path shows where the satellite is in the earth's shadow,  

DLR